Terminal Aerodrome Forecast
Issued by NWS State College, PA

Home | Current Version | Previous Version | Text Only | Print | Product List | Glossary On
Versions: 1 2 3 4 5 6 7 8 9 10 11 12 13 14 15 16 17 18 19 20 21 22 23 24 25 26 27 28 29 30 31 32 33 34 35 36 37 38 39 40 41 42 43 44 45 46 47 48 49 50
704
FTUS41 KCTP 022101 AAC
TAFMDT
TAF AMD
KMDT 022101Z 0221/0318 08004KT P6SM SCT250
     FM030100 09003KT 5SM BR VCSH BKN007
     FM030300 07006KT 2SM -RA BR OVC007
     FM030700 03005KT 2SM -RA BR OVC004
     FM031100 34003KT 4SM -RA BR OVC005=

USA.gov is the U.S. government's official web portal to all federal, state and local government web resources and services.